Date String (YYYY-MM-DD hh:mm:ss) UTC,Instrument flags,Ambient pressure (hPa),Sample flow (lpm),Bypass flow (lpm),Sample temperature (°C),Ambient temperature (°C),ASC tube jacket temperature (°C),LED temperature (°C),Box temperature (°C),Sample RH (%),Span deviation,Mass concentration (μg/m³),Mass concentration (μg/m³),Mass concentration (μg/m³)
DateTimeUTC,F1_M11,P_M11,Q1_M11,Q2_M11,T1_M11,T2_M11,T3_M11,T4_M11,T5_M11,U1_M11,ZSPAN_M11,X0_M11,X2_M11,X1_M11
2023-04-08 11:00:00,,0829.0,5.00,0.00,22.3,20.8,00.0,30.7,23.8,11.5,0000.0,0011.17,0003.98,0002.43
2023-04-08 11:01:00,,0829.0,4.99,0.00,22.3,20.7,00.0,30.7,23.8,11.4,0000.0,0011.01,0004.01,0002.44
2023-04-08 11:02:00,,0828.9,5.00,0.00,22.3,20.6,00.0,30.7,23.8,11.4,0000.0,0010.79,0003.96,0002.43
2023-04-08 11:03:00,,0828.9,5.00,0.00,22.3,20.6,00.0,30.7,23.7,11.6,0000.0,0010.94,0003.96,0002.43
2023-04-08 11:04:00,,0828.8,5.00,0.00,22.3,20.5,00.0,30.7,23.7,11.6,0000.0,0011.03,0003.93,0002.43
2023-04-08 11:05:00,,0828.8,5.00,0.00,22.3,20.5,00.0,30.7,23.8,11.6,0000.0,0011.12,0003.87,0002.41
2023-04-08 11:06:00,,0828.8,5.01,0.00,22.3,20.5,00.0,30.6,23.8,11.7,0000.0,0010.52,0003.82,0002.37
2023-04-08 11:07:00,,0828.8,5.01,0.00,22.2,20.5,00.0,30.6,23.8,11.8,0000.0,0010.05,0003.74,0002.34
2023-04-08 11:08:00,,0828.8,4.99,0.00,22.2,20.5,00.0,30.6,23.7,11.7,0000.0,0009.84,0003.69,0002.31
2023-04-08 11:09:00,,0828.8,4.99,0.00,22.2,20.5,00.0,30.6,23.6,11.7,0000.0,0009.53,0003.67,0002.26
2023-04-08 11:10:00,,0829.0,5.00,0.00,22.2,20.5,00.0,30.6,23.6,11.7,0000.0,0009.36,0003.66,0002.22
2023-04-08 11:11:00,,0828.7,5.01,0.00,22.2,20.5,00.0,30.6,23.6,11.7,0000.0,0008.95,0003.59,0002.17
2023-04-08 11:12:00,,0828.8,5.00,0.00,22.2,20.5,00.0,30.6,23.6,11.7,0000.0,0008.81,0003.52,0002.15
2023-04-08 11:13:00,,0828.9,5.01,0.00,22.2,20.5,00.0,30.6,23.7,11.6,0000.0,0008.87,0003.47,0002.11
2023-04-08 11:14:00,,0829.0,5.00,0.00,22.2,20.4,00.0,30.6,23.6,11.6,0000.0,0009.34,0003.46,0002.09
2023-04-08 11:15:00,,0829.0,4.99,0.00,22.1,20.3,00.0,30.6,23.6,11.6,0000.0,0009.70,0003.45,0002.07
2023-04-08 11:16:00,,0829.0,4.99,0.00,22.1,20.3,00.0,30.5,23.5,11.6,0000.0,0009.38,0003.40,0002.04
2023-04-08 11:17:00,,0829.0,5.00,0.00,22.1,20.3,00.0,30.5,23.5,11.6,0000.0,0009.30,0003.36,0002.01
2023-04-08 11:18:00,,0828.9,5.00,0.00,22.0,20.2,00.0,30.5,23.4,11.6,0000.0,0009.13,0003.33,0002.00
2023-04-08 11:19:00,,0829.0,5.00,0.00,22.0,20.2,00.0,30.5,23.4,11.6,0000.0,0009.72,0003.32,0001.99
2023-04-08 11:20:00,,0828.9,5.01,0.00,22.0,20.5,00.0,30.4,23.6,11.7,0000.0,0010.29,0003.34,0001.99
2023-04-08 11:21:00,,0828.9,5.01,0.00,22.1,21.6,00.0,30.4,24.0,11.6,0000.0,0011.22,0003.31,0001.98
2023-04-08 11:22:00,,0829.0,5.00,0.00,22.3,22.8,00.0,30.4,24.4,11.5,0000.0,0011.20,0003.32,0001.98
2023-04-08 11:23:00,,0828.9,4.99,0.00,22.4,22.9,00.0,30.5,24.4,11.4,0000.0,0011.61,0003.33,0001.96
2023-04-08 11:24:00,,0828.9,5.00,0.00,22.4,22.7,00.0,30.6,24.2,11.3,0000.0,0011.22,0003.32,0001.94
2023-04-08 11:25:00,,0828.9,5.01,0.00,22.5,22.3,00.0,30.6,24.1,11.3,0000.0,0010.66,0003.28,0001.94
2023-04-08 11:26:00,,0829.0,4.99,0.00,22.5,22.0,00.0,30.7,24.1,11.3,0000.0,0009.79,0003.27,0001.93
2023-04-08 11:27:00,,0828.9,4.98,0.00,22.5,21.8,00.0,30.7,24.0,11.3,0000.0,0009.74,0003.30,0001.92
2023-04-08 11:28:00,,0828.9,5.01,0.00,22.4,21.6,00.0,30.7,24.0,11.3,0000.0,0009.95,0003.36,0001.92
2023-04-08 11:29:00,,0828.9,5.00,0.00,22.4,21.4,00.0,30.7,24.0,11.3,0000.0,0010.17,0003.35,0001.92
2023-04-08 11:30:00,,0828.9,4.99,0.00,22.4,21.2,00.0,30.7,23.9,11.3,0000.0,0009.68,0003.34,0001.91
2023-04-08 11:31:00,,0828.9,5.00,0.00,22.4,21.1,00.0,30.7,23.9,11.3,0000.0,0009.38,0003.30,0001.89
2023-04-08 11:32:00,,0829.0,5.00,0.00,22.4,21.0,00.0,30.7,23.9,11.4,0000.0,0008.62,0003.24,0001.87
2023-04-08 11:33:00,,0829.0,5.01,0.00,22.4,21.0,00.0,30.7,23.9,11.4,0000.0,0008.79,0003.23,0001.87
2023-04-08 11:34:00,,0829.0,5.00,0.00,22.4,21.0,00.0,30.7,23.9,11.3,0000.0,0009.12,0003.23,0001.88
2023-04-08 11:35:00,,0829.0,5.00,0.00,22.4,20.9,00.0,30.7,23.9,11.3,0000.0,0008.91,0003.23,0001.88
2023-04-08 11:36:00,,0829.0,5.01,0.00,22.4,20.9,00.0,30.7,23.9,11.2,0000.0,0009.18,0003.23,0001.88
2023-04-08 11:37:00,,0829.0,5.00,0.00,22.4,20.8,00.0,30.7,23.9,11.2,0000.0,0009.44,0003.23,0001.87
2023-04-08 11:38:00,,0829.0,5.00,0.00,22.4,20.8,00.0,30.7,23.9,11.2,0000.0,0009.65,0003.23,0001.86
2023-04-08 11:39:00,,0828.9,5.00,0.00,22.4,20.8,00.0,30.7,23.9,11.0,0000.0,0009.79,0003.20,0001.87
2023-04-08 11:40:00,,0828.9,5.00,0.00,22.4,20.8,00.0,30.7,23.9,10.9,0000.0,0009.43,0003.17,0001.88
2023-04-08 11:41:00,,0828.9,5.01,0.00,22.4,20.8,00.0,30.7,23.9,10.9,0000.0,0009.70,0003.19,0001.90
2023-04-08 11:42:00,,0828.8,5.00,0.00,22.3,20.8,00.0,30.7,23.9,11.0,0000.0,0009.68,0003.23,0001.91
2023-04-08 11:43:00,,0828.8,5.00,0.00,22.3,20.8,00.0,30.7,23.9,11.0,0000.0,0010.05,0003.30,0001.93
2023-04-08 11:44:00,,0828.9,5.00,0.00,22.3,20.8,00.0,30.7,23.9,11.0,0000.0,0010.12,0003.33,0001.95
2023-04-08 11:45:00,,0829.0,5.00,0.00,22.3,20.8,00.0,30.7,23.9,11.0,0000.0,0009.73,0003.37,0001.98
2023-04-08 11:46:00,,0829.0,4.99,0.00,22.3,20.8,00.0,30.7,23.9,11.1,0000.0,0009.64,0003.40,0001.99
2023-04-08 11:47:00,,0829.0,4.98,0.00,22.3,20.7,00.0,30.7,23.9,11.1,0000.0,0009.62,0003.44,0002.01
2023-04-08 11:48:00,,0828.9,5.00,0.00,22.3,20.7,00.0,30.7,23.8,11.1,0000.0,0009.50,0003.49,0002.06
2023-04-08 11:49:00,,0828.9,5.00,0.00,22.3,20.6,00.0,30.7,23.8,11.0,0000.0,0009.57,0003.51,0002.12
2023-04-08 11:50:00,,0828.9,5.00,0.00,22.3,20.6,00.0,30.7,23.7,11.0,0000.0,0010.82,0003.54,0002.14
2023-04-08 11:51:00,,0828.9,5.01,0.00,22.3,20.6,00.0,30.7,23.8,11.0,0000.0,0011.02,0003.56,0002.16
2023-04-08 11:52:00,,0828.9,5.01,0.00,22.3,20.6,00.0,30.7,23.8,11.1,0000.0,0011.04,0003.60,0002.20
2023-04-08 11:53:00,,0828.9,5.00,0.00,22.3,20.6,00.0,30.6,23.8,11.1,0000.0,0010.71,0003.63,0002.23
2023-04-08 11:54:00,,0829.0,4.98,0.00,22.3,20.7,00.0,30.6,23.8,11.1,0000.0,0010.44,0003.63,0002.25
2023-04-08 11:55:00,,0829.0,5.00,0.00,22.3,20.7,00.0,30.6,23.8,11.1,0000.0,0009.76,0003.62,0002.26
2023-04-08 11:56:00,,0828.9,5.01,0.00,22.3,20.7,00.0,30.6,23.7,11.1,0000.0,0009.65,0003.60,0002.25
2023-04-08 11:57:00,,0828.9,5.01,0.00,22.3,20.7,00.0,30.6,23.8,11.1,0000.0,0009.76,0003.61,0002.26
2023-04-08 11:58:00,,0828.9,5.00,0.00,22.3,20.7,00.0,30.6,23.8,11.1,0000.0,0009.76,0003.62,0002.26
2023-04-08 11:59:00,,0829.0,5.01,0.00,22.3,20.7,00.0,30.6,23.8,11.0,0000.0,0009.80,0003.62,0002.26
